Time,TemperatureF,DewpointF,PressureIn,WindDirection,WindDirectionDegrees,WindSpeedMPH,WindSpeedGustMPH,Humidity,HourlyPrecipIn,Conditions,Clouds,dailyrainin,SolarRadiationWatts/m^2,SoftwareType,DateUTC
2013-02-05 00:06:00,57.5,47.0,30.07,WNW,300,0.0,-999.0,69,-99.99,,,0.00,0,weatherlink.com 1.10,2013-02-05 05:06:00,
2013-02-05 00:21:00,57.6,47.0,30.08,WNW,300,0.0,-999.0,68,-99.99,,,0.00,0,weatherlink.com 1.10,2013-02-05 05:21:00,
2013-02-05 00:36:00,57.1,48.0,30.07,WNW,300,0.0,-999.0,71,-99.99,,,0.00,0,weatherlink.com 1.10,2013-02-05 05:36:00,
2013-02-05 00:51:00,56.5,46.0,30.07,WNW,300,0.0,-999.0,69,-99.99,,,0.00,0,weatherlink.com 1.10,2013-02-05 05:51:00,
2013-02-05 01:06:00,56.1,46.0,30.07,WNW,300,0.0,-999.0,69,-99.99,,,0.00,0,weatherlink.com 1.10,2013-02-05 06:06:00,
2013-02-05 01:21:00,56.9,45.0,30.07,ENE,72,1.0,-999.0,65,-99.99,,,0.00,0,weatherlink.com 1.10,2013-02-05 06:21:00,
2013-02-05 01:36:00,57.2,46.0,30.07,ENE,63,0.0,-999.0,67,-99.99,,,0.00,0,weatherlink.com 1.10,2013-02-05 06:36:00,
2013-02-05 01:52:00,56.9,46.0,30.07,ENE,63,0.0,-999.0,68,-99.99,,,0.00,0,weatherlink.com 1.10,2013-02-05 06:52:00,
2013-02-05 02:06:00,56.8,46.0,30.06,ENE,71,0.0,-999.0,67,-99.99,,,0.00,0,weatherlink.com 1.10,2013-02-05 07:06:00,
2013-02-05 02:21:00,56.6,46.0,30.06,East,82,0.0,-999.0,68,-99.99,,,0.00,0,weatherlink.com 1.10,2013-02-05 07:21:00,
2013-02-05 02:36:00,56.5,46.0,30.05,NE,54,0.0,-999.0,69,-99.99,,,0.00,0,weatherlink.com 1.10,2013-02-05 07:36:00,
2013-02-05 02:51:00,56.4,47.0,30.05,East,98,0.0,-999.0,72,-99.99,,,0.00,0,weatherlink.com 1.10,2013-02-05 07:51:00,
2013-02-05 03:06:00,56.0,48.0,30.05,NE,49,0.0,-999.0,75,-99.99,,,0.00,0,weatherlink.com 1.10,2013-02-05 08:06:00,
2013-02-05 03:21:00,55.5,47.0,30.05,NE,43,1.0,-999.0,74,-99.99,,,0.00,0,weatherlink.com 1.10,2013-02-05 08:21:00,
2013-02-05 03:36:00,55.1,47.0,30.05,NE,56,0.0,-999.0,74,-99.99,,,0.00,0,weatherlink.com 1.10,2013-02-05 08:36:00,
2013-02-05 04:22:00,54.8,46.0,30.04,NE,42,0.0,-999.0,73,-99.99,,,0.00,0,weatherlink.com 1.10,2013-02-05 09:22:00,
2013-02-05 04:37:00,54.5,46.0,30.04,NE,44,0.0,-999.0,72,-99.99,,,0.00,0,weatherlink.com 1.10,2013-02-05 09:37:00,
2013-02-05 04:51:00,54.4,45.0,30.04,ENE,59,0.0,-999.0,71,-99.99,,,0.00,0,weatherlink.com 1.10,2013-02-05 09:51:00,
2013-02-05 05:06:00,54.4,46.0,30.03,ENE,70,0.0,-999.0,72,-99.99,,,0.00,0,weatherlink.com 1.10,2013-02-05 10:06:00,
2013-02-05 05:21:00,54.2,46.0,30.04,ENE,68,0.0,-999.0,73,-99.99,,,0.00,0,weatherlink.com 1.10,2013-02-05 10:21:00,
2013-02-05 05:36:00,54.1,45.0,30.04,ENE,60,0.0,-999.0,72,-99.99,,,0.00,0,weatherlink.com 1.10,2013-02-05 10:36:00,
2013-02-05 05:51:00,53.9,45.0,30.05,ENE,61,0.0,-999.0,72,-99.99,,,0.00,0,weatherlink.com 1.10,2013-02-05 10:51:00,
2013-02-05 06:06:00,53.5,45.0,30.05,ENE,61,0.0,-999.0,74,-99.99,,,0.00,0,weatherlink.com 1.10,2013-02-05 11:06:00,
2013-02-05 06:22:00,53.2,45.0,30.05,ENE,60,0.0,-999.0,75,-99.99,,,0.00,0,weatherlink.com 1.10,2013-02-05 11:22:00,
2013-02-05 06:37:00,53.7,46.0,30.05,ENE,76,0.0,-999.0,75,-99.99,,,0.00,0,weatherlink.com 1.10,2013-02-05 11:37:00,
2013-02-05 06:52:00,54.1,46.0,30.06,East,94,1.0,-999.0,74,-99.99,,,0.00,0,weatherlink.com 1.10,2013-02-05 11:52:00,
2013-02-05 07:06:00,54.2,45.0,30.05,East,84,0.0,-999.0,72,-99.99,,,0.00,0,weatherlink.com 1.10,2013-02-05 12:06:00,
2013-02-05 07:21:00,54.5,45.0,30.05,East,84,2.0,-999.0,70,-99.99,,,0.00,14,weatherlink.com 1.10,2013-02-05 12:21:00,
2013-02-05 07:36:00,55.3,45.0,30.06,East,83,0.0,-999.0,69,-99.99,,,0.00,32,weatherlink.com 1.10,2013-02-05 12:36:00,
2013-02-05 07:51:00,56.8,45.0,30.07,ESE,121,1.0,-999.0,66,-99.99,,,0.00,69,weatherlink.com 1.10,2013-02-05 12:51:00,
2013-02-05 08:07:00,58.4,45.0,30.07,East,95,0.0,-999.0,62,-99.99,,,0.00,116,weatherlink.com 1.10,2013-02-05 13:07:00,
2013-02-05 08:21:00,60.0,45.0,30.08,ESE,103,0.0,-999.0,59,-99.99,,,0.00,176,weatherlink.com 1.10,2013-02-05 13:21:00,
2013-02-05 08:36:00,61.8,47.0,30.08,SE,140,2.0,-999.0,58,-99.99,,,0.00,232,weatherlink.com 1.10,2013-02-05 13:36:00,
2013-02-05 08:52:00,64.4,48.0,30.08,East,100,0.0,-999.0,56,-99.99,,,0.00,285,weatherlink.com 1.10,2013-02-05 13:52:00,
2013-02-05 09:09:00,66.4,50.0,30.08,East,90,0.0,-999.0,56,-99.99,,,0.00,332,weatherlink.com 1.10,2013-02-05 14:09:00,
2013-02-05 09:21:00,68.2,51.0,30.09,ENE,76,1.0,-999.0,54,-99.99,,,0.00,381,weatherlink.com 1.10,2013-02-05 14:21:00,
2013-02-05 09:37:00,69.4,52.0,30.09,SE,128,4.0,-999.0,54,-99.99,,,0.00,427,weatherlink.com 1.10,2013-02-05 14:37:00,
2013-02-05 09:52:00,70.9,54.0,30.10,ESE,123,0.0,-999.0,55,-99.99,,,0.00,471,weatherlink.com 1.10,2013-02-05 14:52:00,
2013-02-05 10:07:00,72.8,55.0,30.09,ESE,122,1.0,-999.0,54,-99.99,,,0.00,512,weatherlink.com 1.10,2013-02-05 15:07:00,
2013-02-05 10:21:00,73.5,57.0,30.09,SSE,157,0.0,-999.0,56,-99.99,,,0.00,554,weatherlink.com 1.10,2013-02-05 15:21:00,
2013-02-05 10:36:00,74.7,58.0,30.09,ESE,119,5.0,-999.0,57,-99.99,,,0.00,587,weatherlink.com 1.10,2013-02-05 15:36:00,
2013-02-05 10:51:00,75.3,59.0,30.09,SE,138,2.0,-999.0,57,-99.99,,,0.00,622,weatherlink.com 1.10,2013-02-05 15:51:00,
2013-02-05 11:06:00,75.9,60.0,30.09,SE,134,0.0,-999.0,58,-99.99,,,0.00,712,weatherlink.com 1.10,2013-02-05 16:06:00,
2013-02-05 11:21:00,74.6,59.0,30.09,SE,126,4.0,-999.0,59,-99.99,,,0.00,396,weatherlink.com 1.10,2013-02-05 16:21:00,
2013-02-05 11:36:00,74.2,60.0,30.08,South,169,2.0,-999.0,61,-99.99,,,0.00,777,weatherlink.com 1.10,2013-02-05 16:36:00,
2013-02-05 11:51:00,74.5,61.0,30.08,East,101,0.0,-999.0,62,-99.99,,,0.00,276,weatherlink.com 1.10,2013-02-05 16:51:00,
2013-02-05 12:06:00,75.2,61.0,30.07,SSE,151,0.0,-999.0,61,-99.99,,,0.00,717,weatherlink.com 1.10,2013-02-05 17:06:00,
2013-02-05 12:21:00,76.1,61.0,30.07,ESE,116,0.0,-999.0,60,-99.99,,,0.00,724,weatherlink.com 1.10,2013-02-05 17:21:00,
2013-02-05 12:36:00,76.9,59.0,30.06,ESE,106,2.0,-999.0,54,-99.99,,,0.00,728,weatherlink.com 1.10,2013-02-05 17:36:00,
2013-02-05 12:52:00,77.7,58.0,30.06,SSE,158,0.0,-999.0,51,-99.99,,,0.00,728,weatherlink.com 1.10,2013-02-05 17:52:00,
2013-02-05 13:06:00,79.2,59.0,30.06,SSE,150,1.0,-999.0,50,-99.99,,,0.00,721,weatherlink.com 1.10,2013-02-05 18:06:00,
2013-02-05 13:21:00,79.2,59.0,30.05,SSE,159,4.0,-999.0,51,-99.99,,,0.00,719,weatherlink.com 1.10,2013-02-05 18:21:00,
2013-02-05 13:36:00,79.4,57.0,30.05,SW,235,0.0,-999.0,47,-99.99,,,0.00,881,weatherlink.com 1.10,2013-02-05 18:36:00,
2013-02-05 13:51:00,79.8,57.0,30.04,SSW,192,2.0,-999.0,46,-99.99,,,0.00,322,weatherlink.com 1.10,2013-02-05 18:51:00,
2013-02-05 14:07:00,79.2,58.0,30.03,SE,142,0.0,-999.0,48,-99.99,,,0.00,788,weatherlink.com 1.10,2013-02-05 19:07:00,
2013-02-05 14:22:00,80.0,60.0,30.03,SW,226,0.0,-999.0,50,-99.99,,,0.00,647,weatherlink.com 1.10,2013-02-05 19:22:00,
2013-02-05 14:36:00,80.5,60.0,30.03,WNW,290,0.0,-999.0,50,-99.99,,,0.00,650,weatherlink.com 1.10,2013-02-05 19:36:00,
2013-02-05 14:52:00,80.3,61.0,30.02,WSW,248,1.0,-999.0,52,-99.99,,,0.00,617,weatherlink.com 1.10,2013-02-05 19:52:00,
2013-02-05 15:07:00,80.5,62.0,30.02,SW,229,0.0,-999.0,53,-99.99,,,0.00,548,weatherlink.com 1.10,2013-02-05 20:07:00,
2013-02-05 15:22:00,79.0,61.0,30.02,WSW,244,0.0,-999.0,55,-99.99,,,0.00,496,weatherlink.com 1.10,2013-02-05 20:22:00,
2013-02-05 15:37:00,79.5,61.0,30.01,WSW,246,0.0,-999.0,53,-99.99,,,0.00,454,weatherlink.com 1.10,2013-02-05 20:37:00,
2013-02-05 15:52:00,79.2,60.0,30.01,WSW,246,0.0,-999.0,52,-99.99,,,0.00,406,weatherlink.com 1.10,2013-02-05 20:52:00,
2013-02-05 16:07:00,79.4,60.0,30.01,WSW,248,0.0,-999.0,52,-99.99,,,0.00,364,weatherlink.com 1.10,2013-02-05 21:07:00,
2013-02-05 16:22:00,78.8,61.0,30.01,SW,229,0.0,-999.0,55,-99.99,,,0.00,311,weatherlink.com 1.10,2013-02-05 21:22:00,
2013-02-05 16:37:00,77.8,62.0,30.01,SSW,213,0.0,-999.0,59,-99.99,,,0.00,260,weatherlink.com 1.10,2013-02-05 21:37:00,
2013-02-05 16:52:00,76.8,62.0,30.01,SW,233,0.0,-999.0,60,-99.99,,,0.00,121,weatherlink.com 1.10,2013-02-05 21:52:00,
2013-02-05 17:07:00,74.8,62.0,30.01,SW,229,0.0,-999.0,65,-99.99,,,0.00,54,weatherlink.com 1.10,2013-02-05 22:07:00,
2013-02-05 17:22:00,73.3,62.0,30.01,SW,223,2.0,-999.0,68,-99.99,,,0.00,47,weatherlink.com 1.10,2013-02-05 22:22:00,
2013-02-05 17:37:00,72.4,62.0,30.01,SW,234,0.0,-999.0,70,-99.99,,,0.00,40,weatherlink.com 1.10,2013-02-05 22:37:00,
2013-02-05 17:52:00,71.7,62.0,30.01,SW,233,0.0,-999.0,72,-99.99,,,0.00,25,weatherlink.com 1.10,2013-02-05 22:52:00,
2013-02-05 18:07:00,70.8,62.0,30.01,SW,233,0.0,-999.0,74,-99.99,,,0.00,9,weatherlink.com 1.10,2013-02-05 23:07:00,
2013-02-05 18:37:00,69.9,62.0,30.02,WSW,237,0.0,-999.0,75,-99.99,,,0.00,0,weatherlink.com 1.10,2013-02-05 23:37:00,
2013-02-05 18:52:00,70.0,62.0,30.03,WSW,238,0.0,-999.0,76,-99.99,,,0.00,0,weatherlink.com 1.10,2013-02-05 23:52:00,
2013-02-05 19:07:00,70.2,62.0,30.03,WSW,244,0.0,-999.0,75,-99.99,,,0.00,0,weatherlink.com 1.10,2013-02-06 00:07:00,
2013-02-05 19:22:00,70.0,62.0,30.03,WSW,238,0.0,-999.0,76,-99.99,,,0.00,0,weatherlink.com 1.10,2013-02-06 00:22:00,
2013-02-05 19:37:00,69.6,62.0,30.02,SW,235,0.0,-999.0,77,-99.99,,,0.00,0,weatherlink.com 1.10,2013-02-06 00:37:00,
2013-02-05 19:52:00,69.1,62.0,30.02,SW,235,0.0,-999.0,79,-99.99,,,0.00,0,weatherlink.com 1.10,2013-02-06 00:52:00,
2013-02-05 20:07:00,68.8,63.0,30.02,SW,235,0.0,-999.0,81,-99.99,,,0.00,0,weatherlink.com 1.10,2013-02-06 01:07:00,
2013-02-05 20:22:00,68.2,62.0,30.02,SW,235,0.0,-999.0,80,-99.99,,,0.00,0,weatherlink.com 1.10,2013-02-06 01:22:00,
2013-02-05 20:37:00,67.7,62.0,30.03,SW,235,0.0,-999.0,81,-99.99,,,0.00,0,weatherlink.com 1.10,2013-02-06 01:37:00,
2013-02-05 20:52:00,67.0,61.0,30.03,SW,235,0.0,-999.0,82,-99.99,,,0.00,0,weatherlink.com 1.10,2013-02-06 01:52:00,
2013-02-05 21:07:00,66.5,61.0,30.04,SW,235,0.0,-999.0,83,-99.99,,,0.00,0,weatherlink.com 1.10,2013-02-06 02:07:00,
2013-02-05 21:22:00,66.2,61.0,30.04,SW,235,0.0,-999.0,83,-99.99,,,0.00,0,weatherlink.com 1.10,2013-02-06 02:22:00,
2013-02-05 21:36:00,65.8,61.0,30.05,SW,235,0.0,-999.0,84,-99.99,,,0.00,0,weatherlink.com 1.10,2013-02-06 02:36:00,
2013-02-05 21:52:00,65.3,61.0,30.05,SW,235,0.0,-999.0,85,-99.99,,,0.00,0,weatherlink.com 1.10,2013-02-06 02:52:00,
2013-02-05 22:07:00,65.3,61.0,30.05,SW,235,0.0,-999.0,86,-99.99,,,0.00,0,weatherlink.com 1.10,2013-02-06 03:07:00,
2013-02-05 22:22:00,65.6,62.0,30.05,SW,235,0.0,-999.0,87,-99.99,,,0.00,0,weatherlink.com 1.10,2013-02-06 03:22:00,
2013-02-05 22:37:00,65.8,62.0,30.05,SW,235,0.0,-999.0,88,-99.99,,,0.00,0,weatherlink.com 1.10,2013-02-06 03:37:00,
2013-02-05 22:52:00,65.8,62.0,30.06,SW,235,0.0,-999.0,88,-99.99,,,0.00,0,weatherlink.com 1.10,2013-02-06 03:52:00,
2013-02-05 23:07:00,65.8,62.0,30.06,SW,235,0.0,-999.0,88,-99.99,,,0.00,0,weatherlink.com 1.10,2013-02-06 04:07:00,
2013-02-05 23:22:00,65.9,63.0,30.06,SW,235,0.0,-999.0,89,-99.99,,,0.00,0,weatherlink.com 1.10,2013-02-06 04:22:00,
2013-02-05 23:37:00,66.1,63.0,30.05,SW,235,0.0,-999.0,88,-99.99,,,0.00,0,weatherlink.com 1.10,2013-02-06 04:37:00,